Location: Carri�res
(48.9069°N, 2.1792°E)
Time: 03:32:54
(UTC+00:00)

COSMOS 2455 - Visible Passes

Search period start: 19 May 2021 00:00
Search period end: 29 May 2021 00:00
Orbit: 902 x 907 km, 67.1° (Epoch: 18 May)

Date Brightness Start Highest point End Pass type
(mag) Time Alt. Az. Time Alt. Az. Time Alt. Az.
19 May 4.0 01:06:17 10° NW 01:10:59 24° WSW 01:11:47 23° WSW visible
19 May 4.6 21:37:52 10° NNW 21:42:54 26° NNE 21:47:55 10° E visible
19 May 2.8 23:23:34 10° NW 23:29:38 90° WSW 23:32:14 36° SSE visible
20 May 4.3 01:10:51 10° WNW 01:14:46 18° WSW 01:15:21 18° WSW visible
20 May 4.3 21:41:51 10° NNW 21:47:10 31° NE 21:52:28 10° E visible
20 May 2.8 23:27:37 10° NW 23:33:38 71° WSW 23:35:50 40° SSE visible
21 May 4.7 01:15:49 10° WNW 01:18:29 13° W 01:18:58 13° WSW visible
21 May 4.0 21:45:48 10° NNW 21:51:23 37° NE 21:56:23 13° ESE visible
21 May 3.1 23:31:43 10° NW 23:37:35 55° WSW 23:39:29 39° S visible
22 May 3.6 21:49:46 10° NNW 21:55:34 46° NE 22:00:04 16° ESE visible
22 May 3.4 23:35:53 10° NW 23:41:29 42° WSW 23:43:12 34° SSW visible
23 May 3.3 21:53:44 10° NNW 21:59:41 57° NE 22:03:49 20° ESE visible
23 May 3.8 23:40:07 10° NW 23:45:21 32° WSW 23:46:57 28° SW visible
24 May 4.7 20:12:06 10° NNW 20:16:47 23° NNE 20:21:26 10° E visible
24 May 3.0 21:57:44 10° NNW 22:03:47 72° NE 22:07:35 24° SE visible
24 May 4.1 23:44:28 10° NW 23:49:11 24° WSW 23:50:43 22° SW visible
25 May 4.4 20:16:04 10° NNW 20:21:05 26° NNE 20:26:05 10° E visible
25 May 2.8 22:01:46 10° NW 22:07:50 90° E 22:11:24 26° SSE visible
25 May 4.5 23:49:01 10° WNW 23:52:58 18° WSW 23:54:32 17° WSW visible
26 May 4.2 20:20:02 10° NNW 20:25:21 31° NE 20:30:38 10° E visible
26 May 2.9 22:05:48 10° NW 22:11:50 72° WSW 22:15:15 27° SSE visible
26 May 4.8 23:53:58 10° WNW 23:56:42 13° W 23:58:23 12° WSW visible
27 May 3.9 20:24:00 10° NNW 20:29:35 37° NE 20:35:07 10° ESE visible
27 May 3.2 22:09:54 10° NW 22:15:47 55° WSW 22:19:09 25° S visible
28 May 3.6 20:27:58 10° NNW 20:33:45 45° NE 20:39:30 10° ESE visible
28 May 3.6 22:14:04 10° NW 22:19:41 42° WSW 22:23:04 22° S visible
